DW8945 Weather Reports


Display with metric or nautical units.
time (UTC)temp
F
wind
direction
speed
MPH
gust
MPH
rain 1hr
in
rain 24hr
in
rain mn
in
humidity
%
barometer
mb
20260506224351 61 186 2.0 8.0 0.00 0.00 0.00 92 1004.7
20260506223856 61 240 2.0 7.0 0.00 0.00 0.00 92 1004.6
20260506223421 61 246 3.0 12.0 0.00 0.00 0.00 92 1004.8
20260506222905 61 235 3.0 12.0 0.00 0.00 0.00 91 1004.8
20260506222351 61 221 4.0 8.0 0.00 0.00 0.00 92 1004.9
20260506221854 61 232 3.0 9.0 0.00 0.00 0.00 91 1005.0
20260506221400 61 238 4.0 11.0 0.00 0.00 0.00 91 1005.0
20260506220846 61 218 6.0 10.0 0.00 0.00 0.00 91 1005.1
20260506220404 61 236 2.0 10.0 0.00 0.00 0.00 91 1005.1
20260506215853 61 229 6.0 10.0 0.00 0.00 0.00 90 1005.1
20260506215400 61 234 2.0 11.0 0.00 0.00 0.00 90 1005.1
20260506214904 61 214 3.0 10.0 0.00 0.00 0.00 90 1005.3
20260506214349 62 230 5.0 10.0 0.00 0.00 0.00 89 1005.3
20260506213854 62 321 6.0 10.0 0.00 0.00 0.00 89 1005.4
20260506213355 62 223 3.0 9.0 0.00 0.00 0.00 89 1005.4
20260506212858 62 260 4.0 10.0 0.00 0.00 0.00 89 1005.6
20260506212345 62 230 6.0 14.0 0.00 0.00 0.00 89 1005.4
20260506211909 62 229 7.0 14.0 0.00 0.00 0.00 89 1005.4
20260506211352 62 251 5.0 10.0 0.00 0.00 0.00 89 1005.4
20260506210856 62 232 5.0 10.0 0.00 0.00 0.00 89 1005.4
20260506210349 62 273 3.0 10.0 0.00 0.00 0.00 89 1005.4
20260506205841 62 232 5.0 12.0 0.00 0.00 0.00 88 1005.5
20260506205342 62 220 4.0 12.0 0.00 0.00 0.00 88 1005.5
20260506204845 62 240 5.0 10.0 0.00 0.00 0.00 88 1005.6
20260506204352 62 252 2.0 12.0 0.00 0.00 0.00 88 1005.6
20260506203858 62 227 3.0 12.0 0.00 0.00 0.00 87 1005.7
20260506203344 62 309 3.0 10.0 0.00 0.00 0.00 87 1005.8
20260506202851 63 227 4.0 9.0 0.00 0.00 0.00 86 1005.7
20260506202357 63 245 3.0 9.0 0.00 0.00 0.00 86 1005.7
20260506201842 63 220 3.0 8.0 0.00 0.00 0.00 86 1005.7
20260506201348 63 229 3.0 7.0 0.00 0.00 0.00 85 1005.6
20260506200856 63 238 3.0 7.0 0.00 0.00 0.00 85 1005.6
20260506200357 64 248 2.0 9.0 0.00 0.00 0.00 85 1005.5
20260506195846 64 234 4.0 10.0 0.00 0.00 0.00 84 1005.5
20260506195413 64 217 3.0 9.0 0.00 0.00 0.00 83 1005.5
20260506194918 65 231 3.0 10.0 0.00 0.00 0.00 82 1005.6
20260506194342 65 236 3.0 10.0 0.00 0.00 0.00 81 1005.6
20260506193847 65 223 2.0 10.0 0.00 0.00 0.00 80 1005.8
20260506193352 66 240 2.0 10.0 0.00 0.00 0.00 79 1005.9
20260506192840 67 239 4.0 10.0 0.00 0.00 0.00 77 1005.6
20260506192347 67 186 3.0 10.0 0.00 0.00 0.00 75 1005.8
20260506191914 68 222 3.0 6.0 0.00 0.00 0.00 74 1005.7
20260506191417 68 222 2.0 7.0 0.00 0.00 0.00 72 1005.8
20260506190842 69 225 3.0 7.0 0.00 0.00 0.00 71 1005.7
20260506190339 69 225 3.0 8.0 0.00 0.00 0.00 70 1005.6
20260506185847 69 236 4.0 8.0 0.00 0.00 0.00 68 1005.7
20260506185353 69 216 3.0 10.0 0.00 0.00 0.00 68 1005.6
20260506184918 69 230 5.0 10.0 0.00 0.00 0.00 66 1005.7
20260506184401 70 218 6.0 12.0 0.00 0.00 0.00 66 1005.8
20260506183907 70 244 4.0 11.0 0.00 0.00 0.00 65 1005.8
20260506183350 71 220 4.0 11.0 0.00 0.00 0.00 64 1005.8
20260506182855 71 217 5.0 12.0 0.00 0.00 0.00 62 1005.9
20260506182358 71 229 6.0 14.0 0.00 0.00 0.00 61 1005.9
20260506181900 72 248 5.0 14.0 0.00 0.00 0.00 60 1005.9
20260506181344 72 62 4.0 14.0 0.00 0.00 0.00 59 1005.8
20260506180850 72 210 7.0 14.0 0.00 0.00 0.00 58 1005.9
20260506180350 73 235 4.0 16.0 0.00 0.00 0.00 58 1005.7
20260506175920 73 99 8.0 16.0 0.00 0.00 0.00 57 1005.8
20260506175423 73 230 7.0 15.0 0.00 0.00 0.00 58 1006.0
20260506174845 73 236 7.0 14.0 0.00 0.00 0.00 58 1006.0
20260506174349 74 227 5.0 13.0 0.00 0.00 0.00 58 1006.2
20260506173854 74 221 7.0 13.0 0.00 0.00 0.00 58 1006.1
20260506173355 73 217 5.0 14.0 0.00 0.00 0.00 59 1006.2
20260506172859 73 240 6.0 14.0 0.00 0.00 0.00 60 1006.3
20260506172401 73 248 5.0 11.0 0.00 0.00 0.00 60 1006.3
20260506171902 73 221 6.0 15.0 0.00 0.00 0.00 60 1006.4
20260506171347 73 240 7.0 15.0 0.00 0.00 0.00 60 1006.3
20260506170852 72 226 6.0 14.0 0.00 0.00 0.00 61 1006.2
20260506170348 72 243 6.0 11.0 0.00 0.00 0.00 61 1006.3
20260506165916 72 227 5.0 11.0 0.00 0.00 0.00 61 1006.4
20260506165401 72 223 3.0 15.0 0.00 0.00 0.00 62 1006.4
20260506164903 72 237 6.0 20.0 0.00 0.00 0.00 61 1006.6
20260506164346 72 219 6.0 20.0 0.00 0.00 0.00 61 1006.7
20260506163911 73 241 6.0 13.0 0.00 0.00 0.00 61 1006.6
20260506163352 73 231 6.0 13.0 0.00 0.00 0.00 61 1006.7
20260506162855 72 219 4.0 10.0 0.00 0.00 0.00 61 1006.7
20260506162419 72 229 3.0 17.0 0.00 0.00 0.00 61 1006.7
20260506161856 72 163 6.0 11.0 0.00 0.00 0.00 61 1006.9
20260506161401 72 231 6.0 11.0 0.00 0.00 0.00 62 1007.0
20260506160905 72 239 6.0 13.0 0.00 0.00 0.00 62 1007.2
20260506160358 72 234 7.0 14.0 0.00 0.00 0.00 61 1007.2
20260506155858 72 234 7.0 16.0 0.00 0.00 0.00 61 1007.3
20260506155423 72 234 6.0 14.0 0.00 0.00 0.00 61 1007.4
20260506154907 72 229 6.0 16.0 0.00 0.00 0.00 60 1007.4
20260506154350 72 234 7.0 16.0 0.00 0.00 0.00 60 1007.6
20260506153916 73 228 6.0 15.0 0.00 0.00 0.00 60 1007.7
20260506153359 73 228 4.0 13.0 0.00 0.00 0.00 60 1007.7
20260506152846 73 252 3.0 14.0 0.00 0.00 0.00 60 1007.8
20260506152351 73 240 6.0 14.0 0.00 0.00 0.00 60 1007.8
20260506151854 73 240 4.0 14.0 0.00 0.00 0.00 60 1007.8
20260506151401 73 298 4.0 18.0 0.00 0.00 0.00 61 1007.8
20260506150848 72 325 7.0 18.0 0.00 0.00 0.00 61 1007.9
20260506150348 72 240 8.0 17.0 0.00 0.00 0.00 61 1008.0
20260506145859 72 277 5.0 13.0 0.00 0.00 0.00 62 1008.0
20260506145346 72 231 4.0 11.0 0.00 0.00 0.00 63 1008.0
20260506144849 71 238 5.0 11.0 0.00 0.00 0.00 63 1007.9
20260506144356 71 236 5.0 12.0 0.00 0.00 0.00 64 1007.8
20260506143923 71 223 5.0 12.0 0.00 0.00 0.00 64 1007.9
20260506143345 71 227 6.0 11.0 0.00 0.00 0.00 64 1007.9
20260506142851 71 206 5.0 13.0 0.00 0.00 0.00 65 1007.9
20260506142355 71 269 6.0 13.0 0.00 0.00 0.00 65 1007.9
20260506141845 70 241 4.0 11.0 0.00 0.00 0.00 66 1007.8
20260506141352 70 300 3.0 11.0 0.00 0.00 0.00 67 1007.8
20260506140857 70 237 3.0 14.0 0.00 0.00 0.00 68 1007.8
20260506140343 69 232 8.0 14.0 0.00 0.00 0.00 68 1008.0
20260506135910 69 250 5.0 9.0 0.00 0.00 0.00 70 1007.9
20260506135356 68 268 4.0 10.0 0.00 0.00 0.00 71 1008.1
20260506134919 68 215 4.0 7.0 0.00 0.00 0.00 72 1008.1
20260506134402 67 224 2.0 13.0 0.00 0.00 0.00 72 1008.0
20260506133847 67 246 3.0 13.0 0.00 0.00 0.00 73 1008.3
20260506133351 67 240 3.0 11.0 0.00 0.00 0.00 73 1008.4
20260506132900 67 242 6.0 11.0 0.00 0.00 0.00 73 1008.6
20260506132405 66 238 1.0 5.0 0.00 0.00 0.00 74 1008.6
20260506131849 66 286 3.0 8.0 0.00 0.00 0.00 75 1008.7
20260506131356 66 231 3.0 9.0 0.00 0.00 0.00 75 1008.6
20260506130901 66 234 5.0 9.0 0.00 0.00 0.00 75 1008.6
20260506130401 65 232 4.0 7.0 0.00 0.00 0.00 76 1008.5
20260506125852 65 211 3.0 9.0 0.00 0.00 0.00 76 1008.5
20260506125400 65 229 4.0 11.0 0.00 0.00 0.00 77 1008.6
20260506124844 65 226 3.0 11.0 0.00 0.00 0.00 77 1008.7
20260506124352 65 227 4.0 10.0 0.00 0.00 0.00 77 1008.7
20260506123858 64 234 6.0 10.0 0.00 0.00 0.00 78 1008.7
20260506123346 64 256 4.0 10.0 0.00 0.00 0.00 78 1008.9
20260506122853 64 242 4.0 7.0 0.00 0.00 0.00 80 1008.8
20260506122358 63 234 3.0 10.0 0.00 0.00 0.00 79 1008.8
20260506121902 63 250 3.0 10.0 0.00 0.00 0.00 80 1008.7
20260506121344 63 257 4.0 7.0 0.00 0.00 0.00 80 1008.6
20260506120851 63 229 3.0 9.0 0.00 0.00 0.00 81 1008.8
20260506120351 62 241 5.0 12.0 0.00 0.00 0.00 81 1008.8
20260506115903 62 232 4.0 12.0 0.00 0.00 0.00 82 1009.0
20260506115349 62 244 4.0 9.0 0.00 0.00 0.00 82 1009.0
20260506114912 62 219 3.0 10.0 0.00 0.00 0.00 82 1009.1
20260506114355 62 232 6.0 10.0 0.00 0.00 0.00 82 1008.8
20260506113900 62 236 3.0 9.0 0.00 0.00 0.00 82 1009.2
20260506113403 62 221 5.0 9.0 0.00 0.00 0.00 82 1009.4
20260506112848 62 221 4.0 8.0 0.00 0.00 0.00 82 1009.3
20260506112412 62 264 2.0 7.0 0.00 0.00 0.00 82 1009.3
20260506111851 62 215 5.0 8.0 0.00 0.00 0.00 82 1009.1
20260506111356 62 217 3.0 8.0 0.00 0.00 0.00 82 1009.1
20260506110902 62 229 5.0 7.0 0.00 0.00 0.00 82 1009.1
20260506110356 61 239 5.0 7.0 0.00 0.00 0.00 82 1009.1
20260506105922 61 229 3.0 8.0 0.00 0.00 0.00 83 1009.0
20260506105347 61 235 4.0 8.0 0.00 0.00 0.00 83 1009.0
20260506104851 61 254 3.0 9.0 0.00 0.00 0.00 82 1009.0
20260506104343 61 240 4.0 9.0 0.00 0.00 0.00 82 1009.0
20260506103905 61 230 2.0 11.0 0.00 0.00 0.00 82 1009.1
20260506103348 61 241 3.0 11.0 0.00 0.00 0.00 82 1009.1
20260506102854 61 237 2.0 6.0 0.00 0.00 0.00 82 1009.2
20260506102423 61 229 1.0 7.0 0.00 0.00 0.00 82 1009.2
20260506101847 61 232 1.0 7.0 0.00 0.00 0.00 82 1009.1
20260506101352 61 217 4.0 7.0 0.00 0.00 0.00 82 1009.0
20260506100858 61 234 3.0 9.0 0.00 0.00 0.00 82 1008.9
20260506100356 61 244 4.0 9.0 0.00 0.00 0.00 82 1009.0
20260506095850 61 233 4.0 9.0 0.00 0.00 0.00 82 1009.0
20260506095357 61 232 4.0 7.0 0.00 0.00 0.00 82 1008.8
20260506094845 61 233 2.0 8.0 0.00 0.00 0.00 82 1008.7
20260506094347 61 217 3.0 8.0 0.00 0.00 0.00 82 1008.7
20260506093852 61 236 2.0 8.0 0.00 0.00 0.00 82 1008.7
20260506093356 61 229 2.0 8.0 0.00 0.00 0.00 82 1008.8
20260506092843 61 232 4.0 8.0 0.00 0.00 0.00 81 1008.9
20260506092350 61 221 4.0 7.0 0.00 0.00 0.00 81 1008.9
20260506091854 61 246 2.0 5.0 0.00 0.00 0.00 81 1008.8
20260506091359 61 234 2.0 7.0 0.00 0.00 0.00 80 1008.8
20260506090843 61 223 4.0 7.0 0.00 0.00 0.00 80 1008.8
20260506090345 61 267 2.0 8.0 0.00 0.00 0.00 80 1008.7
20260506085854 62 225 4.0 8.0 0.00 0.00 0.00 80 1008.8
20260506085359 62 231 3.0 7.0 0.00 0.00 0.00 80 1008.8
20260506084902 62 231 4.0 7.0 0.00 0.00 0.00 79 1008.9
20260506084345 62 238 2.0 7.0 0.00 0.00 0.00 79 1008.8
20260506083851 62 223 4.0 8.0 0.00 0.00 0.00 79 1008.8
20260506083355 62 229 3.0 8.0 0.00 0.00 0.00 79 1008.8
20260506082859 62 227 4.0 8.0 0.00 0.00 0.00 79 1008.9
20260506082402 62 238 4.0 11.0 0.00 0.00 0.00 78 1008.9
20260506081845 62 236 3.0 11.0 0.00 0.00 0.00 78 1008.8
20260506081352 62 219 3.0 10.0 0.00 0.00 0.00 78 1008.8
20260506080856 62 228 5.0 9.0 0.00 0.00 0.00 77 1008.7
20260506080354 62 273 4.0 8.0 0.00 0.00 0.00 77 1008.7
20260506073348 63 234 5.0 14.0 0.00 0.00 0.00 76 1008.6
20260506072856 63 267 6.0 14.0 0.00 0.00 0.00 76 1008.7
20260506072402 63 237 5.0 12.0 0.00 0.00 0.00 76 1008.6
20260506071845 63 234 3.0 9.0 0.00 0.00 0.00 75 1008.5
20260506071351 63 233 4.0 9.0 0.00 0.00 0.00 75 1008.5
20260506070857 63 275 4.0 11.0 0.00 0.00 0.00 74 1008.5
20260506070401 63 232 3.0 13.0 0.00 0.00 0.00 74 1008.5
20260506062402 64 271 2.0 9.0 0.00 0.00 0.00 72 1008.4
20260506061906 64 246 2.0 11.0 0.00 0.00 0.00 71 1008.3
20260506061351 64 263 4.0 11.0 0.00 0.00 0.00 71 1008.3
20260506060857 64 241 3.0 10.0 0.00 0.00 0.00 70 1008.3
20260506060400 64 213 4.0 12.0 0.00 0.00 0.00 70 1008.3
20260506050845 65 230 4.0 8.0 0.00 0.00 0.00 67 1008.8
20260506050342 65 225 3.0 9.0 0.00 0.00 0.00 67 1008.6
20260506044846 65 297 5.0 11.0 0.00 0.00 0.00 66 1008.9
20260506044350 65 230 6.0 11.0 0.00 0.00 0.00 66 1008.8
20260506043917 65 219 3.0 9.0 0.00 0.00 0.00 66 1008.8
20260506043421 65 269 3.0 9.0 0.00 0.00 0.00 66 1008.7
20260506042846 65 222 3.0 11.0 0.00 0.00 0.00 65 1008.8
20260506042352 65 225 5.0 11.0 0.00 0.00 0.00 65 1008.8
20260506041857 65 247 5.0 11.0 0.00 0.00 0.00 65 1008.7
20260506041423 65 241 3.0 9.0 0.00 0.00 0.00 65 1008.8
20260506040847 65 219 4.0 10.0 0.00 0.00 0.00 65 1008.8
20260506040406 65 237 6.0 15.0 0.00 0.00 0.00 65 1008.8
20260506035849 65 271 6.0 15.0 0.00 0.00 0.00 65 1008.8
20260506035354 65 212 4.0 12.0 0.00 0.00 0.00 65 1008.7
20260506034856 65 263 5.0 17.0 0.00 0.00 0.00 65 1008.7
20260506034341 65 5 4.0 10.0 0.00 0.00 0.00 65 1008.6
20260506033909 65 216 5.0 10.0 0.00 0.00 0.00 65 1008.6
20260506033352 65 229 5.0 10.0 0.00 0.00 0.00 65 1008.7
20260506032855 65 224 3.0 11.0 0.00 0.00 0.00 65 1008.7
20260506032359 65 223 5.0 11.0 0.00 0.00 0.00 65 1008.6
20260506031843 65 331 3.0 11.0 0.00 0.00 0.00 65 1008.6
20260506031350 65 204 4.0 10.0 0.00 0.00 0.00 65 1008.7
20260506030857 65 242 5.0 9.0 0.00 0.00 0.00 64 1008.6
20260506030400 65 214 5.0 11.0 0.00 0.00 0.00 64 1008.5
20260506025850 65 231 3.0 14.0 0.00 0.00 0.00 64 1008.6
20260506025357 65 224 3.0 13.0 0.00 0.00 0.00 64 1008.6
20260506024843 65 246 3.0 10.0 0.00 0.00 0.00 64 1008.6
20260506024410 65 217 4.0 8.0 0.00 0.00 0.00 64 1008.6
20260506023858 65 233 4.0 10.0 0.00 0.00 0.00 64 1008.7
20260506023346 65 246 4.0 10.0 0.00 0.00 0.00 63 1008.7
20260506022913 65 283 4.0 10.0 0.00 0.00 0.00 63 1008.7
20260506022358 65 273 3.0 8.0 0.00 0.00 0.00 63 1008.6
20260506021842 65 241 5.0 14.0 0.00 0.00 0.00 63 1008.6
20260506021349 65 238 3.0 14.0 0.00 0.00 0.00 63 1008.5
20260506020858 65 271 5.0 10.0 0.00 0.00 0.00 62 1008.6
20260506020420 65 275 2.0 9.0 0.00 0.00 0.00 62 1008.6
20260506015850 66 285 3.0 8.0 0.00 0.00 0.00 61 1008.6
20260506015416 66 228 4.0 12.0 0.00 0.00 0.00 61 1008.6
20260506014857 66 202 4.0 9.0 0.00 0.00 0.00 61 1008.6
20260506014400 66 241 3.0 9.0 0.00 0.00 0.00 60 1008.5
20260506013845 66 307 4.0 10.0 0.00 0.00 0.00 60 1008.5
20260506013350 66 295 5.0 11.0 0.00 0.00 0.00 60 1008.4
20260506012856 67 230 4.0 11.0 0.00 0.00 0.00 60 1008.3
20260506012343 67 235 3.0 16.0 0.00 0.00 0.00 59 1008.2
20260506011847 67 284 4.0 16.0 0.00 0.00 0.00 59 1008.1
20260506011413 67 238 4.0 11.0 0.00 0.00 0.00 59 1008.1
20260506010900 67 246 3.0 11.0 0.00 0.00 0.00 59 1008.1
20260506010341 67 210 3.0 7.0 0.00 0.00 0.00 60 1007.9
20260506005849 67 209 3.0 9.0 0.00 0.00 0.00 60 1008.0
20260506005357 67 240 4.0 13.0 0.00 0.00 0.00 60 1008.0
20260506004900 67 259 4.0 10.0 0.00 0.00 0.00 60 1008.0
20260506004347 67 244 4.0 10.0 0.00 0.00 0.00 60 1007.9
20260506003855 67 262 4.0 10.0 0.00 0.00 0.00 60 1007.8
20260506003357 67 272 4.0 10.0 0.00 0.00 0.00 60 1007.7
20260506002921 67 240 3.0 7.0 0.00 0.00 0.00 61 1007.6
20260506002345 67 263 3.0 7.0 0.00 0.00 0.00 60 1007.5
20260506001849 67 232 3.0 9.0 0.00 0.00 0.00 60 1007.4
20260506001355 67 228 3.0 9.0 0.00 0.00 0.00 60 1007.3
20260506000842 67 271 3.0 8.0 0.00 0.00 0.00 59 1007.1
20260506000343 68 204 2.0 9.0 0.00 0.00 0.00 59 1007.0
20260505235914 68 233 4.0 9.0 0.00 0.00 0.00 59 1006.9
20260505235400 68 243 5.0 10.0 0.00 0.00 0.00 58 1006.9
20260505234846 68 281 4.0 10.0 0.00 0.00 0.00 58 1006.8
20260505234353 69 231 4.0 10.0 0.00 0.00 0.00 57 1006.7
20260505233840 69 236 5.0 10.0 0.00 0.00 0.00 57 1006.7
20260505233406 69 227 6.0 10.0 0.00 0.00 0.00 56 1006.6
20260505232851 70 235 3.0 9.0 0.00 0.00 0.00 56 1006.6
20260505232357 70 235 1.0 9.0 0.00 0.00 0.00 56 1006.6
20260505231844 70 231 4.0 10.0 0.00 0.00 0.00 55 1006.4
20260505231350 71 231 4.0 10.0 0.00 0.00 0.00 54 1006.3
20260505230857 72 224 5.0 11.0 0.00 0.00 0.00 53 1006.2
20260505230419 72 248 3.0 12.0 0.00 0.00 0.00 53 1006.1
20260505225848 72 238 7.0 13.0 0.00 0.00 0.00 52 1006.0
20260505225355 72 205 5.0 13.0 0.00 0.00 0.00 52 1005.9
20260505224842 73 336 5.0 11.0 0.00 0.00 0.00 52 1005.8